IRIDIUM 33 DEB, 34690

Orbit data source: Space-Track

IRIDIUM 33 DEB, 34690 is space debris in LEO originally from a launch on Sun, 14 Sep 1997 UTC launched from the Tyuratam Missile And Space Complex (TTMTR). The debris from Iridium 33, an American commercial communications satellite, has been tracked extensively since its accidental collision with the defunct Russian satellite Cosmos 2251 in 2009. This event, occurring at high speed in low Earth orbit (LEO), generated thousands of pieces of space debris, significantly increasing the risk of further collisions. The Iridium 33 debris cloud has impacted space traffic management and orbital debris mitigation strategies, making it a subject of ongoing study in space situational awareness.

Loading next visibility...
Identifier
34690, 1997-051KM
Orbit
LEO
Country
Flag of USUS
Related business
Manufacturer
Unknown
Mission
Spacecraft
Bus & Motor
Unknown
Mass
Unknown
Launch date (UTC)
1997-09-14 (28 years ago)
Launch vehicle
Unknown
Launch site
Tyuratam Missile And Space Complex (TTMTR)
Object type
Payload
Rocket body
Debris
Shape & HBR
Unknown shape, 0.1 m
Radar Cross Section
Small (<0.1 m²)

Expand to show TLE details & history
Last TLE update: 5 hours ago

TLE from 5 hours ago
0 IRIDIUM 33 DEB
1 34690U 97051KM  26063.80265528  .00002402  00000-0  54751-3 0  9990
2 34690  86.3817   1.3166 0012467  95.4368 294.2402 14.55440391892883
Epoch: 2026-03-04T19:15Z
TLE epoch observation values (Epoch: 2026-03-04T19:15:49.416Z)
Latitude
29.5306°
Longitude
-88.15961°
Altitude
708.145 km
Speed
7.506 km/s
True Right ascension
00h 13m 26s
True Declination
29° 22' 56"
Sunlit
Object was in daylight at epoch
Visualization orbit readout
Latitude
Unknown
Longitude
Unknown
Altitude
Unknown
Speed
Unknown
Apparent Right ascension
Unknown
Apparent Declination
Unknown
Sunlit
N/A
Visualization observer readout
Local Sidereal Time
03:44:20
Azimuth
Unknown
Elevation
Unknown
Doppler factor
Unknown
Orbital elements
Apogee altitude
713.7 km
Perigee altitude
696.039 km
Semi-major axis
7,083.007 km
Eccentricity
0.00125
Inclination
86.3817°
RAAN
1.3166°
Arg. of periapsis
95.4368°
True anomaly
294.10985°
Mean anomaly
294.2402°
Eccentric anomaly
294.17503°
Mean motion
3.64097 °/min
Orbital period
98.87 mins
BSTAR
0.00054751
Loading maneuver chart data...
Computing Atmospheric mass density...
Loading historical data...
Loading historical data...
Loading historical data...
Loading historical data...
Loading historical data...
Loading historical data...
Loading historical data...

Documentation

Showing up to 5 results
|